2023/07/22 00:00:00, 0.1,21.4
2023/07/22 00:10:00, 0.1,21.4
2023/07/22 00:20:00, 0.1,21.2
2023/07/22 00:30:00, 0.1,21.1
2023/07/22 00:40:00, 0.1,21.1
2023/07/22 00:50:00, 0.1,21.0
2023/07/22 01:00:00, 0.0,21.0
2023/07/22 01:10:00, 0.0,21.0
2023/07/22 01:20:00, 0.1,21.0
2023/07/22 01:30:00, 0.2,20.7
2023/07/22 01:40:00, 9.7,20.4
2023/07/22 01:50:00,17.1,20.6
2023/07/22 02:00:00,17.4,20.5
2023/07/22 02:10:00,17.4,20.5
2023/07/22 02:20:00,17.6,20.6
2023/07/22 02:30:00,17.8,20.4
2023/07/22 02:40:00,18.0,20.4
2023/07/22 02:50:00,18.0,20.4
2023/07/22 03:00:00,18.1,20.2
2023/07/22 03:10:00,18.3,19.9
2023/07/22 03:20:00,18.4,19.9
2023/07/22 03:30:00,18.6,19.8
2023/07/22 03:40:00,18.6,20.0
2023/07/22 03:50:00,18.6,20.0
2023/07/22 04:00:00,18.5,19.9
2023/07/22 04:10:00,18.6,20.2
2023/07/22 04:20:00,18.9,20.0
2023/07/22 04:30:00,19.4,19.8
2023/07/22 04:40:00,18.8,19.8
2023/07/22 04:50:00,18.2,19.6
2023/07/22 05:00:00,17.5,19.5
2023/07/22 05:10:00,16.9,19.6
2023/07/22 05:20:00,16.7,19.5
2023/07/22 05:30:00,16.7,19.4
2023/07/22 05:40:00,16.6,19.5
2023/07/22 05:50:00,16.6,19.7
2023/07/22 06:00:00,16.5,19.7
2023/07/22 06:10:00,16.3,19.8
2023/07/22 06:20:00,16.4,19.9
2023/07/22 06:30:00,16.8,20.2
2023/07/22 06:40:00,17.1,20.5
2023/07/22 06:50:00,17.0,21.0
2023/07/22 07:00:00,16.8,21.5
2023/07/22 07:10:00,16.5,21.7
2023/07/22 07:20:00,16.0,22.0
2023/07/22 07:30:00,15.8,22.5
2023/07/22 07:40:00,15.6,23.5
2023/07/22 07:50:00,15.5,23.9
2023/07/22 08:00:00,14.5,24.5
2023/07/22 08:10:00, 3.1,24.8
2023/07/22 08:20:00, 6.7,25.2
2023/07/22 08:30:00,12.6,25.4
2023/07/22 08:40:00,12.6,26.6
2023/07/22 08:50:00, 4.3,27.2
2023/07/22 09:00:00, 6.9,27.3
2023/07/22 09:10:00,14.0,28.2
2023/07/22 09:20:00,---,28.5
2023/07/22 09:30:00,---,29.7
2023/07/22 09:40:00,21.1,30.0
2023/07/22 09:50:00,13.6,30.5
2023/07/22 10:00:00, 1.1,31.2
2023/07/22 10:10:00, 0.8,31.4
2023/07/22 10:20:00,17.0,32.8
2023/07/22 10:30:00,15.2,32.4
2023/07/22 10:40:00, 3.1,32.6
2023/07/22 10:50:00,---,32.8
2023/07/22 11:00:00, 0.3,32.9
2023/07/22 11:10:00, 0.2,33.5
2023/07/22 11:20:00, 0.5,32.9
2023/07/22 11:30:00,---,33.0
2023/07/22 11:40:00, 0.0,31.8
2023/07/22 11:50:00,19.4,31.8
2023/07/22 12:00:00,18.3,31.6
2023/07/22 12:10:00,17.4,32.5
2023/07/22 12:20:00,16.9,31.8
2023/07/22 12:30:00,16.5,33.1
2023/07/22 12:40:00,16.0,34.3
2023/07/22 12:50:00,15.9,34.4
2023/07/22 13:00:00,15.9,33.7
2023/07/22 13:10:00,16.4,32.3
2023/07/22 13:20:00,16.8,32.5
2023/07/22 13:30:00,16.8,31.7
2023/07/22 13:40:00,16.2,31.6
2023/07/22 13:50:00,16.3,31.2
2023/07/22 14:00:00,---,31.2
2023/07/22 14:10:00,16.5,30.9
2023/07/22 14:20:00,16.8,31.0
2023/07/22 14:30:00,16.8,29.3
2023/07/22 14:40:00,16.2,29.0
2023/07/22 14:50:00,16.0,30.0
2023/07/22 15:00:00,16.1,30.4
2023/07/22 15:10:00,16.4,29.6
2023/07/22 15:20:00,15.8,29.4
2023/07/22 15:30:00,15.3,29.5
2023/07/22 15:40:00,14.6,30.3
2023/07/22 15:50:00,14.6,31.2
2023/07/22 16:00:00,15.1,31.2
2023/07/22 16:10:00,15.3,31.9
2023/07/22 16:20:00,15.3,31.4
2023/07/22 16:30:00,15.5,30.1
2023/07/22 16:40:00,15.6,29.5
2023/07/22 16:50:00,15.4,29.3
2023/07/22 17:00:00,15.2,28.0
2023/07/22 17:10:00,14.3,28.3
2023/07/22 17:20:00,12.5,27.1
2023/07/22 17:30:00,13.8,27.5
2023/07/22 17:40:00,14.2,27.6
2023/07/22 17:50:00,14.6,28.2
2023/07/22 18:00:00,14.3,27.6
2023/07/22 18:10:00,14.8,27.1
2023/07/22 18:20:00,14.9,26.7
2023/07/22 18:30:00,13.6,26.6
2023/07/22 18:40:00, 2.2,26.2
2023/07/22 18:50:00, 0.1,26.2
2023/07/22 19:00:00, 0.1,26.2
2023/07/22 19:10:00, 0.0,25.5
2023/07/22 19:20:00, 0.1,25.4
2023/07/22 19:30:00, 0.0,25.2
2023/07/22 19:40:00, 0.0,25.0
2023/07/22 19:50:00, 0.0,24.0
2023/07/22 20:00:00, 0.0,23.9
2023/07/22 20:10:00, 0.1,23.9
2023/07/22 20:20:00, 0.1,23.7
2023/07/22 20:30:00, 0.1,23.6
2023/07/22 20:40:00, 0.1,23.5
2023/07/22 20:50:00, 0.1,23.4
2023/07/22 21:00:00, 0.1,23.4
2023/07/22 21:10:00, 0.1,22.7
2023/07/22 21:20:00, 0.0,23.2
2023/07/22 21:30:00, 0.0,22.9
2023/07/22 21:40:00, 0.1,23.1
2023/07/22 21:50:00, 0.0,23.3
2023/07/22 22:00:00, 0.0,23.4
2023/07/22 22:10:00, 0.1,23.3
2023/07/22 22:20:00, 0.0,23.2
2023/07/22 22:30:00, 0.0,23.0
2023/07/22 22:40:00, 0.0,22.8
2023/07/22 22:50:00, 0.1,22.6
2023/07/22 23:00:00, 0.0,22.6
2023/07/22 23:10:00, 0.0,22.5
2023/07/22 23:20:00, 0.1,22.5
2023/07/22 23:30:00, 0.2,22.5
2023/07/22 23:40:00, 0.2,22.1
2023/07/22 23:50:00, 0.2,22.2
